McAlester, OK

2:20 PM CST on December 05, 2019 (GMT -0600)
McAlester Regional

Weather History for KMLC - September, 2019

Change the Weather History Date:

Tuesday, September 3, 2019

  Actual Average Record
Temperature  
Mean Temperature 82 °F -  
Max Temperature 93 °F 89 °F 108 °F (2000)
Min Temperature 70 °F 66 °F 51 °F (1974)
Cooling Degree Days 16    
Growing Degree Days 32 (Base 50)    
Moisture  
Dew Point 70 °F    
Average Humidity 73    
Maximum Humidity 97    
Minimum Humidity 42    
Precipitation  
Precipitation 0.00 in - - ()
Sea Level Pressure  
Sea Level Pressure 29.99 in    
Wind  
Wind Speed 2 mph (SSW)    
Max Wind Speed 8 mph    
Max Gust Speed -    
Visibility 9 miles    
Events      
Averages and records for this station are not official NWS values.
T = Trace of Precipitation, MM = Missing Value Source: NWS Daily Summary

Daily Weather History Graph

Daily Weather History Graph

Search for Another Location

Airport or City:

Astronomy

Sep. 03, 2019 Rise Set
Actual Time 6:57 AM CDT 7:47 PM CDT
Civil Twilight 6:31 AM CDT 8:12 PM CDT
Nautical Twilight 6:01 AM CDT 8:43 PM CDT
Astronomical Twilight 5:29 AM CDT 9:14 PM CDT
Moon 11:40 AM CDT (9/3) 10:56 PM CDT (9/3)
Length of Visible Light 13h 41m
Length of Day
12h 49m
Waxing Crescent, 25% of the Moon is Illuminated
Sep 3
Waxing Crescent
Sep 5
First Quarter
Sep 13
Full
Sep 21
Last Quarter
Sep 28
New

Hourly Weather History & Observations

Time (CDT) Temp. Heat Index Dew Point Humidity Pressure Visibility Wind Dir Wind Speed Gust Speed Precip Events Conditions
12:53 AM 75.0 °F - 70.0 °F 84% 30.00 in 10.0 mi Calm Calm - N/A   Clear
1:53 AM 75.9 °F - 70.0 °F 82% 30.00 in 10.0 mi Calm Calm - N/A   Scattered Clouds
2:53 AM 73.0 °F - 70.0 °F 90% 29.99 in 9.0 mi Calm Calm - N/A   Mostly Cloudy
3:53 AM 72.0 °F - 70.0 °F 93% 29.98 in 9.0 mi Calm Calm - N/A   Partly Cloudy
4:53 AM 72.0 °F - 70.0 °F 93% 29.99 in 6.0 mi Calm Calm - N/A   Clear
5:53 AM 71.1 °F - 69.1 °F 93% 29.99 in 5.0 mi Calm Calm - N/A   Scattered Clouds
6:53 AM 70.0 °F - 69.1 °F 97% 30.00 in 6.0 mi Calm Calm - N/A   Partly Cloudy
7:53 AM 73.9 °F - 71.1 °F 91% 30.02 in 8.0 mi Calm Calm - N/A   Partly Cloudy
8:53 AM 79.0 °F - 71.1 °F 77% 30.02 in 10.0 mi Calm Calm - N/A   Clear
9:53 AM 84.0 °F 89.0 °F 71.1 °F 65% 30.02 in 10.0 mi South 5.8 mph - N/A   Partly Cloudy
10:53 AM 86.0 °F 90.7 °F 70.0 °F 59% 30.02 in 10.0 mi Variable 6.9 mph - N/A   Clear
11:53 AM 88.0 °F 92.1 °F 69.1 °F 53% 30.01 in 10.0 mi South 8.1 mph - N/A   Clear
12:53 PM 91.0 °F 95.6 °F 69.1 °F 48% 30.00 in 10.0 mi SW 8.1 mph - N/A   Partly Cloudy
1:53 PM 91.0 °F 94.3 °F 66.9 °F 45% 29.99 in 10.0 mi SW 5.8 mph - N/A   Clear
2:53 PM 91.9 °F 95.9 °F 68.0 °F 45% 29.96 in 10.0 mi Variable 5.8 mph - N/A   Clear
3:53 PM 93.0 °F 96.4 °F 66.9 °F 42% 29.95 in 10.0 mi NW 3.5 mph - N/A   Clear
4:53 PM 93.0 °F 97.4 °F 68.0 °F 44% 29.94 in 10.0 mi West 3.5 mph - N/A   Scattered Clouds
5:53 PM 88.0 °F 93.8 °F 71.1 °F 57% 29.94 in 10.0 mi ENE 3.5 mph - N/A   Clear
6:53 PM 82.9 °F 90.2 °F 75.0 °F 77% 29.96 in 10.0 mi Calm Calm - N/A   Clear
7:53 PM 79.0 °F - 73.9 °F 84% 29.96 in 10.0 mi Calm Calm - N/A   Clear
8:53 PM 77.0 °F - 73.0 °F 88% 29.98 in 10.0 mi Calm Calm - N/A   Clear
9:53 PM 75.9 °F - 72.0 °F 87% 30.00 in 10.0 mi Calm Calm - N/A   Clear
11:53 PM 75.9 °F - 71.1 °F 85% 30.00 in 10.0 mi East 4.6 mph - N/A   Clear